Regional Weather Roundup
Issued by NWS

Home | Current Version | Previous Version | Text Only | Print | Product List | Glossary Off
Versions: 1 2 3 4 5 6 7 8 9 10 11 12 13 14 15 16 17 18 19 20 21 22 23 24 25 26 27

000
ASUS45 KPSR 280010
RWRAZ

ARIZONA HOURLY REGIONAL WEATHER ROUNDUP
NATIONAL WEATHER SERVICE PHOENIX AZ
500 PM MST WED JUL 27 2016

NOTE: FAIR INDICATES FEW OR NO CLOUDS BELOW 12,000 FEET WITH NO
SIGNIFICANT WEATHER AND/OR OBSTRUCTIONS TO VISIBILITY.

AZZ001>003-036-280100-
NORTHWEST ARIZONA

CITY           SKY/WX    TMP DP  RH WIND       PRES   REMARKS
BULLHEAD CITY  MOSUNNY  117  48  10 E3        29.69S HX 112
KINGMAN        CLOUDY    88  55  32 NW12G25   29.98F
6HR MIN TEMP:  82; 6HR MAX TEMP: 107; 6HR PCP: TRACE;

$$

AZZ004>008-015-016-018-280100-
NORTH CENTRAL ARIZONA

CITY           SKY/WX    TMP DP  RH WIND       PRES   REMARKS
GRAND CANYON   MOSUNNY   94  30  10 N8        30.23F
6HR MIN TEMP:  90; 6HR MAX TEMP:  96;

WILLIAMS       MOSUNNY   88  39  18 NW5       30.31F
PRESCOTT       CLOUDY    78  54  43 S12       30.10F
6HR MIN TEMP:  76; 6HR MAX TEMP:  99; 6HR PCP: TRACE;

FLAGSTAFF      SUNNY     89  28  11 N5        30.25F
6HR MIN TEMP:  81; 6HR MAX TEMP:  90;

PAYSON         MOSUNNY   93  50  22 W8G15     30.09S HAZE
PAGE           SUNNY    105  26   6 E9        29.98F
6HR MIN TEMP:  95; 6HR MAX TEMP: 106;

$$

AZZ009>014-017-280100-
NORTHEAST ARIZONA

CITY           SKY/WX    TMP DP  RH WIND       PRES   REMARKS
WINSLOW        MOSUNNY   99  37  11 NE3       30.03F
6HR MIN TEMP:  87; 6HR MAX TEMP: 102; 6HR PCP: TRACE;

SAINT JOHNS    SUNNY     97  25   7 NE16G31   30.09F
6HR MIN TEMP:  89; 6HR MAX TEMP:  99;

WINDOW ROCK    SUNNY     92  29  10 N14G25    30.21F
6HR MIN TEMP:  86; 6HR MAX TEMP:  95;

SHOW LOW       MOSUNNY   91  28  10 N14G21    30.18F
$$

AZZ023-280100-
GREATER PHOENIX AREA

CITY           SKY/WX    TMP DP  RH WIND       PRES   REMARKS
PHOENIX        MOSUNNY  112  56  16 W13       29.69F HX 111
6HR MIN TEMP: 103; 6HR MAX TEMP: 112;

BUCKEYE        SUNNY    111  54  15 W12       29.72F HX 109
GLENDALE       MOSUNNY  115  55  14 S16G23    29.70F HX 114
LUKE AFB       SUNNY    112  55  15 W13       29.68F HX 111
6HR MIN TEMP: 101; 6HR MAX TEMP: 112;

DEER VALLEY    SUNNY    109  55  17 SW8G20    29.71F HX 108
6HR MIN TEMP:  99; 6HR MAX TEMP: 111;

SCOTTSDALE     SUNNY    110  55  16 SW10      29.74F HX 109
6HR MIN TEMP:  99; 6HR MAX TEMP: 110;

MESA-FALCON    MOSUNNY  N/A N/A N/A SW12G17   29.70
MESA-GATEWAY   MOSUNNY  108  57  19 W12       29.73F HX 107
CHANDLER       MOSUNNY  109  54  16 W14       29.72F HX 108
$$

AZZ027-028-280100-
SOUTHWEST MARICOPA COUNTY AND PINAL COUNTY

CITY           SKY/WX    TMP DP  RH WIND       PRES   REMARKS
CASA GRANDE    SUNNY    109  57  18 W15       29.76F HX 109
6HR MIN TEMP: 100; 6HR MAX TEMP: 109;

GILA BEND      MOSUNNY  112  53  14 W12       29.69F HX 110
6HR MIN TEMP: 103; 6HR MAX TEMP: 112;

$$

AZZ503-504-507>509-280100-
SOUTHEAST ARIZONA

CITY           SKY/WX    TMP DP  RH WIND       PRES   REMARKS
TUCSON         SUNNY    105  56  19 N13G18    29.86F HX 104
6HR MIN TEMP:  95; 6HR MAX TEMP: 105;

DAVIS-MONTHAN  SUNNY    103  57  22 N10       29.85F HX 102
6HR MIN TEMP:  93; 6HR MAX TEMP: 103;

RYAN FIELD     SUNNY    104  55  20 NW12G17   29.85F HX 103
NOGALES          N/A    N/A N/A N/A W10         N/A  THUNDER
6HR MIN TEMP:  88; 6HR MAX TEMP:  96;

SIERRA VISTA   PTSUNNY   73  63  68 SW17G33   30.07F
                                      6HR PCP:  0.12;

DOUGLAS        PTSUNNY   89  61  38 NW12      30.00S THUNDER
6HR MIN TEMP:  84; 6HR MAX TEMP:  93;

SAFFORD        CLOUDY    90  60  36 E10       29.88F
6HR MIN TEMP:  79; 6HR MAX TEMP: 105; 6HR PCP:  0.02;

$$

AZZ020-021-025-026-031-280100-
SOUTHWEST ARIZONA

CITY           SKY/WX    TMP DP  RH WIND       PRES   REMARKS
YUMA           PTSUNNY  112  58  17 SW8       29.68F HX 112
6HR MIN TEMP: 104; 6HR MAX TEMP: 113;

$$

CAZ031-033-041-043-047-048-061-280100-
SOUTHERN CALIFORNIA

CITY           SKY/WX    TMP DP  RH WIND       PRES   REMARKS
DOWNTOWN L.A.  SUNNY     83  54  36 VRB3      29.87F
6HR MIN TEMP:  82; 6HR MAX TEMP:  89;

L.A. AIRPORT   MOSUNNY   77  65  66 W13       29.89F
6HR MIN TEMP:  76; 6HR MAX TEMP:  80;

SAN DIEGO      MOSUNNY   78  65  63 W7        29.90F
6HR MIN TEMP:  77; 6HR MAX TEMP:  80;

BURBANK        SUNNY     91  45  20 S10       29.87F
6HR MIN TEMP:  88; 6HR MAX TEMP:  96;

ONTARIO        MOSUNNY   96  55  25 W15       29.87F
6HR MIN TEMP:  91; 6HR MAX TEMP: 100;

RIVERSIDE      SUNNY     96  49  20 W14G25    29.87S
6HR MIN TEMP:  92; 6HR MAX TEMP: 101;

PALM SPRINGS   MOSUNNY  115  48  11 NW17G30   29.70F HX 111
6HR MIN TEMP: 104; 6HR MAX TEMP: 117;

EL CENTRO NAS  MOSUNNY  115  50  11 S7        29.67F HX 111
6HR MIN TEMP: 104; 6HR MAX TEMP: 115;

IMPERIAL       MOSUNNY  115  60  17 W6        29.65F HX 117
6HR MIN TEMP: 105; 6HR MAX TEMP: 116;

BLYTHE         SUNNY    114  54  14 W13G20    29.67F HX 112
6HR MIN TEMP: 106; 6HR MAX TEMP: 116;

NEEDLES        CLOUDY   117  51  11 S9        29.70F HX 113
6HR MIN TEMP: 110; 6HR MAX TEMP: 119;

$$

NVZ020-UTZ003-280100-
SOUTHERN NEVADA-UTAH

CITY           SKY/WX    TMP DP  RH WIND       PRES   REMARKS
LAS VEGAS      MOSUNNY  113  39   8 VRB5      29.76F HX 106
6HR MIN TEMP: 105; 6HR MAX TEMP: 115;

SALT LAKE CITY MOSUNNY  100  27   7 CALM      30.05F
6HR MIN TEMP:  95; 6HR MAX TEMP: 101;

$$

NMZ009-TXZ055-280100-
NEW MEXICO-WEST TEXAS

CITY           SKY/WX    TMP DP  RH WIND       PRES   REMARKS
ALBUQUERQUE    CLOUDY    91  49  23 E22       30.10F
6HR MIN TEMP:  83; 6HR MAX TEMP:  93;

EL PASO        PTSUNNY   91  57  31 E9        30.00F
6HR MIN TEMP:  83; 6HR MAX TEMP:  96; 6HR PCP: TRACE;

$$


........................KEY........................
SKY/WX - SKY CONDITION/WEATHER
TMP    - TEMPERATURE IN FAHRENHEIT
DP     - DEW POINT IN FAHRENHEIT
RH     - RELATIVE HUMIDITY IN PERCENT
WIND   - DIRECTION AND SPEED IN MILES PER HOUR (MPH)
VRB    - VARIABLE WIND DIRECTION
PRES   - MEAN SEA LEVEL PRESSURE IN INCHES OF MERCURY
         F - FALLING PRESSURE   R - RISING PRESSURE
         S - STEADY PRESSURE
VSB    - VISIBILITY IN MILES
HX     - HEAT INDEX IN FAHRENHEIT
WCI    - WIND CHILL INDEX IN FAHRENHEIT
TC     - TEMPERATURE IN CELSIUS WHICH IS ALSO KNOWN AS
         TEMPERATURE IN CENTIGRADE
AFB    - AIR FORCE BASE
         LUKE AFB IS LUKE AIR FORCE BASE
         DAVIS-MONTHAN IS DAVIS-MONTHAN AIR FORCE BASE
NAS    - NAVAL AIR STATION
         EL CENTRO NAS IS EL CENTRO NAVAL AIR STATION
N/A    - NOT AVAILABLE





USA.gov is the U.S. government's official web portal to all federal, state and local government web resources and services.